period_start,C,m1,H,J0,J1,J2,J3,J4,J5,JA,JB,JC,JD,JJ,JK,JN,#
2014-11-22 00:03:24,0.12,4.90,0.00,23.27,26.60,29.44,4.85,26.68,1021.01,2032.41,1914.46,2211.02,2396.95,350.24,349.09,34.66,0000 0000 0000 0000 000000
2014-11-22 00:08:25,0.13,4.90,0.00,23.56,26.60,29.38,4.79,26.63,1021.00,2032.26,1913.66,2210.59,2396.13,349.80,348.34,34.69,0000 0000 0000 0000 000000
2014-11-22 00:13:27,0.10,4.90,0.00,23.62,26.60,29.40,4.77,26.47,1020.99,2032.32,1912.96,2210.00,2395.77,350.10,348.54,34.71,0000 0000 0000 0000 000000
2014-11-22 00:18:28,0.09,4.91,0.00,23.67,26.60,29.29,4.77,26.48,1021.01,2032.19,1912.33,2209.45,2395.01,349.28,347.72,34.74,0000 0000 0000 0000 000000
2014-11-22 00:23:29,0.13,4.91,0.00,23.68,26.60,29.28,4.85,26.46,1021.01,2032.16,1911.15,2208.99,2394.32,350.45,348.75,34.77,0000 0000 0000 0000 000000
2014-11-22 00:28:30,0.07,4.91,0.00,23.43,26.60,29.41,4.85,26.52,1021.01,2032.22,1910.99,2208.33,2393.93,349.81,348.36,34.80,0000 0000 0000 0000 000000
2014-11-22 00:33:31,0.11,4.92,0.00,23.20,26.60,29.49,4.81,26.53,1021.01,2032.16,1910.14,2207.92,2393.13,350.19,348.97,34.83,0000 0000 0000 0000 000000
2014-11-22 00:38:33,0.16,4.92,0.00,23.12,26.60,29.47,4.83,26.61,1021.01,2032.21,1909.06,2207.10,2392.67,350.37,349.38,34.86,0000 0000 0000 0000 000000
2014-11-22 00:43:34,0.15,4.92,0.00,23.41,26.60,29.45,4.81,26.43,1021.01,2032.27,1908.18,2206.62,2392.02,350.32,349.03,34.89,0000 0000 0000 0000 000000
2014-11-22 00:48:35,0.21,4.93,0.00,23.47,26.60,29.47,4.74,26.51,1021.01,2032.51,1907.34,2206.01,2391.46,349.89,348.63,34.92,0000 0000 0000 0000 000000
2014-11-22 00:53:36,0.14,4.93,0.00,23.19,26.60,29.46,4.83,26.66,1021.01,2032.69,1906.56,2205.41,2390.91,350.01,348.94,34.95,0000 0000 0000 0000 000000
2014-11-22 00:58:38,0.08,4.12,0.00,23.08,26.60,29.45,4.33,23.73,1021.01,2033.24,2169.64,2393.69,2595.64,313.38,312.17,0.00,0000 0000 0000 0000 000002
2014-11-22 01:03:39,0.04,0.00,0.00,23.05,26.60,29.48,4.83,26.48,1021.01,2036.00,3485.24,3335.90,3622.55,350.10,349.23,0.01,0000 0000 0000 0000 000000
2014-11-22 01:08:40,0.05,0.00,0.00,23.03,26.61,29.48,4.81,26.48,1021.01,2036.00,3482.12,3334.41,3620.56,350.62,349.69,0.04,0000 0000 0000 0000 000000
2014-11-22 01:13:41,0.07,0.00,0.00,23.28,26.62,29.52,4.81,26.44,1021.01,2036.00,3479.82,3333.07,3618.77,350.00,348.98,0.07,0000 0000 0000 0000 000000
2014-11-22 01:18:43,0.10,0.01,0.00,23.55,26.62,29.47,4.71,26.41,1021.01,2035.99,3477.75,3331.69,3617.07,349.55,348.00,0.10,0000 0000 0000 0000 000000
2014-11-22 01:23:44,0.13,0.01,0.00,23.61,26.62,29.47,4.84,26.35,1021.01,2035.99,3475.73,3330.43,3615.44,349.84,348.31,0.13,0000 0000 0000 0000 000000
2014-11-22 01:28:45,0.14,0.02,0.00,23.60,26.62,29.32,4.79,26.37,1021.00,2035.99,3473.69,3329.03,3613.80,350.21,348.63,0.16,0000 0000 0000 0000 000000
2014-11-22 01:33:46,0.13,0.02,0.00,23.62,26.62,29.28,4.82,26.38,1020.98,2035.99,3471.97,3327.85,3612.28,350.07,348.52,0.18,0000 0000 0000 0000 000000
2014-11-22 01:38:47,0.13,0.03,0.00,23.67,26.62,29.41,4.79,26.38,1021.01,2035.98,3470.15,3326.70,3610.82,350.09,348.50,0.21,0000 0000 0000 0000 000000
2014-11-22 01:43:49,0.12,0.03,0.00,23.67,26.61,29.39,4.72,26.38,1021.01,2035.97,3468.39,3325.62,3609.58,349.43,347.89,0.24,0000 0000 0000 0000 000000
2014-11-22 01:48:50,0.12,0.03,0.00,23.66,26.60,29.29,4.83,26.30,1020.97,2035.98,3466.85,3324.49,3608.05,350.22,348.70,0.27,0000 0000 0000 0000 000000
2014-11-22 01:53:51,0.11,0.04,0.00,23.66,26.60,29.31,4.78,26.39,1020.95,2035.97,3465.16,3323.47,3606.88,350.07,348.46,0.30,0000 0000 0000 0000 000000
2014-11-22 01:58:52,0.12,0.04,0.00,23.39,26.60,29.45,4.77,26.34,1020.96,2035.97,3463.57,3322.36,3605.65,350.30,349.14,0.33,0000 0000 0000 0000 000000
2014-11-22 02:03:53,0.11,0.04,0.00,23.17,26.60,29.47,4.77,26.35,1020.85,2035.98,3461.79,3321.37,3604.60,349.96,348.90,0.36,0000 0000 0000 0000 000000
2014-11-22 02:08:54,0.11,0.05,0.00,23.07,26.59,29.46,4.82,26.41,1020.66,2035.99,3460.18,3320.23,3603.35,350.11,349.05,0.39,0000 0000 0000 0000 000000
2014-11-22 02:13:55,0.12,0.05,0.00,23.05,26.59,29.47,4.81,26.37,1020.56,2035.97,3458.61,3319.09,3601.94,350.30,349.34,0.42,0000 0000 0000 0000 000000
2014-11-22 02:18:56,0.12,0.05,0.00,22.98,26.59,29.48,4.73,26.29,1020.62,2035.98,3456.97,3317.92,3600.71,349.60,348.70,0.45,0000 0000 0000 0000 000000
2014-11-22 02:23:57,0.11,0.06,0.00,22.96,26.60,29.48,4.81,26.35,1020.87,2035.97,3455.34,3316.90,3599.53,350.58,349.76,0.48,0000 0000 0000 0000 000000
2014-11-22 02:28:59,0.12,0.06,0.00,22.92,26.60,29.51,4.80,26.38,1020.94,2035.97,3453.83,3315.77,3598.16,350.07,349.26,0.51,0000 0000 0000 0000 000000
2014-11-22 02:34:00,0.12,0.06,0.00,22.92,26.60,29.51,4.79,26.44,1020.97,2035.94,3452.25,3314.63,3596.78,349.88,349.15,0.54,0000 0000 0000 0000 000000
2014-11-22 02:39:01,0.10,0.07,0.00,22.92,26.60,29.53,4.80,26.35,1021.00,2035.86,3450.56,3313.50,3595.56,349.22,348.45,0.57,0000 0000 0000 0000 000000
2014-11-22 02:44:03,0.10,0.07,0.00,23.07,26.60,29.55,4.81,26.38,1021.00,2035.81,3448.94,3312.38,3594.34,350.31,349.34,0.59,0000 0000 0000 0000 000000
2014-11-22 02:49:04,0.11,0.07,0.00,23.42,26.61,29.55,4.77,26.36,1020.99,2035.68,3447.13,3311.37,3593.33,350.17,348.86,0.62,0000 0000 0000 0000 000000
2014-11-22 02:54:05,0.13,0.08,0.00,23.50,26.61,29.55,4.86,26.48,1020.96,2035.90,3445.48,3310.35,3592.35,350.32,348.93,0.65,0000 0000 0000 0000 000000
2014-11-22 02:59:06,0.12,0.08,0.00,23.57,26.61,29.56,4.86,26.40,1020.91,2035.95,3443.81,3309.27,3591.19,350.53,348.86,0.68,0000 0000 0000 0000 000000
2014-11-22 03:04:07,0.10,0.08,0.00,23.57,26.60,29.56,4.70,26.30,1020.96,2035.92,3442.41,3308.15,3589.81,349.83,348.32,0.71,0000 0000 0000 0000 000000
2014-11-22 03:09:09,0.11,0.09,0.00,23.26,26.60,29.56,4.73,26.32,1020.88,2035.89,3440.88,3307.09,3588.52,349.44,348.25,0.74,0000 0000 0000 0000 000000
2014-11-22 03:14:10,0.10,0.09,0.00,23.08,26.60,29.55,4.84,26.44,1020.93,2035.82,3439.30,3305.96,3587.31,350.28,349.47,0.77,0000 0000 0000 0000 000000
2014-11-22 03:19:11,0.11,0.09,0.00,22.99,26.60,29.57,4.80,26.38,1020.96,2035.82,3437.75,3304.87,3585.99,349.51,348.86,0.80,0000 0000 0000 0000 000000
2014-11-22 03:24:12,0.12,0.10,0.00,22.94,26.61,29.55,4.84,26.41,1020.96,2035.78,3435.90,3303.82,3584.97,350.05,349.29,0.83,0000 0000 0000 0000 000000
2014-11-22 03:29:14,0.10,0.10,0.00,22.90,26.62,29.56,4.80,26.49,1020.97,2035.80,3434.20,3302.69,3583.95,349.59,348.89,0.86,0000 0000 0000 0000 000000
2014-11-22 03:34:15,0.14,0.10,0.00,22.89,26.62,29.54,4.83,26.27,1020.92,2035.85,3432.49,3301.55,3582.74,349.98,349.19,0.89,0000 0000 0000 0000 000000
2014-11-22 03:39:15,0.12,0.11,0.00,22.87,26.62,29.55,4.88,26.41,1020.91,2035.56,3430.15,3299.90,3581.11,350.18,349.46,0.92,0000 0000 0000 0000 000000
2014-11-22 03:44:17,0.13,0.11,0.00,22.86,26.64,29.52,4.87,26.35,1020.92,2035.43,3427.98,3298.52,3579.57,349.96,349.35,0.95,0000 0000 0000 0000 000000
2014-11-22 03:49:18,0.13,0.12,0.00,23.06,26.65,29.54,4.71,26.34,1021.00,2035.32,3426.15,3297.11,3577.86,349.15,348.28,0.98,0000 0000 0000 0000 000000
2014-11-22 03:54:20,0.11,0.12,0.00,23.43,26.65,29.59,4.72,26.45,1021.01,2035.11,3424.13,3295.75,3576.40,349.94,348.60,1.00,0000 0000 0000 0000 000000
2014-11-22 03:59:21,0.13,0.12,0.00,23.52,26.67,29.66,4.69,26.30,1021.01,2035.05,3422.08,3294.43,3575.05,349.62,348.28,1.03,0000 0000 0000 0000 000000
2014-11-22 04:04:22,0.13,0.13,0.00,23.54,26.67,29.65,4.77,26.41,1021.01,2035.06,3420.14,3293.20,3573.69,350.02,348.58,1.06,0000 0000 0000 0000 000000
2014-11-22 04:09:23,0.12,0.13,0.00,23.58,26.67,29.65,4.79,26.38,1021.02,2035.07,3418.47,3292.03,3572.46,350.35,349.05,1.09,0000 0000 0000 0000 000000
2014-11-22 04:14:24,0.13,0.14,0.00,23.60,26.67,29.63,4.79,26.38,1021.01,2035.07,3416.63,3290.90,3571.42,349.93,348.49,1.12,0000 0000 0000 0000 000000
2014-11-22 04:19:25,0.13,0.14,0.00,23.60,26.67,29.60,4.81,26.43,1021.00,2035.19,3415.08,3289.87,3570.28,350.06,348.54,1.15,0000 0000 0000 0000 000000
2014-11-22 04:24:27,0.10,0.14,0.00,23.60,26.67,29.62,4.76,26.38,1021.03,2035.22,3413.63,3288.86,3569.07,350.66,349.00,1.18,0000 0000 0000 0000 000000
2014-11-22 04:29:28,0.11,0.15,0.00,23.62,26.66,29.60,4.71,26.31,1021.01,2035.23,3412.07,3287.92,3568.07,349.51,347.94,1.21,0000 0000 0000 0000 000000
2014-11-22 04:34:29,0.13,0.15,0.00,23.62,26.65,29.61,4.75,26.34,1021.01,2035.41,3410.57,3286.88,3566.98,349.26,347.66,1.24,0000 0000 0000 0000 000000
2014-11-22 04:39:29,0.11,0.15,0.00,23.61,26.65,29.60,4.89,26.48,1021.02,2035.16,3408.89,3285.74,3565.65,350.55,348.93,1.27,0000 0000 0000 0000 000000
2014-11-22 04:44:31,0.16,0.16,0.00,23.62,26.65,29.59,4.79,26.32,1021.02,2035.48,3407.57,3284.86,3564.71,350.36,348.75,1.30,0000 0000 0000 0000 000000
2014-11-22 04:49:32,0.10,0.16,0.00,23.61,26.64,29.59,4.78,26.33,1021.05,2035.61,3406.07,3283.83,3563.55,350.31,348.79,1.33,0000 0000 0000 0000 000000
2014-11-22 04:54:33,0.13,0.16,0.00,23.62,26.63,29.56,4.78,26.43,1021.03,2035.68,3404.57,3282.86,3562.51,350.32,348.75,1.36,0000 0000 0000 0000 000000
2014-11-22 04:59:35,0.13,0.17,0.00,23.62,26.62,29.56,4.74,26.38,1021.04,2035.93,3403.13,3281.91,3561.48,349.50,348.05,1.39,0000 0000 0000 0000 000000
2014-11-22 05:04:36,0.10,0.17,0.00,23.62,26.62,29.56,4.75,26.24,1021.04,2035.94,3401.70,3280.96,3560.46,350.45,349.00,1.41,0000 0000 0000 0000 000000
2014-11-22 05:09:37,0.10,0.18,0.00,23.64,26.62,29.54,4.74,26.38,1021.05,2035.96,3400.20,3279.92,3559.31,349.32,347.69,1.44,0000 0000 0000 0000 000000
2014-11-22 05:14:38,0.11,0.18,0.00,23.66,26.62,29.54,4.75,26.31,1021.05,2035.96,3398.64,3278.96,3558.27,350.00,348.51,1.47,0000 0000 0000 0000 000000
2014-11-22 05:19:39,0.09,0.18,0.00,23.69,26.61,29.54,4.84,26.35,1021.06,2035.96,3397.22,3277.96,3557.18,350.72,348.95,1.50,0000 0000 0000 0000 000000
2014-11-22 05:24:40,0.10,0.18,0.00,23.70,26.60,29.54,4.72,26.42,1021.10,2035.98,3395.88,3276.96,3556.03,349.86,348.29,1.53,0000 0000 0000 0000 000000
2014-11-22 05:29:42,0.12,0.19,0.00,23.71,26.60,29.55,4.76,26.38,1021.09,2035.97,3394.32,3275.93,3554.92,350.19,348.61,1.56,0000 0000 0000 0000 000000
2014-11-22 05:34:43,0.12,0.19,0.00,23.72,26.60,29.56,4.77,26.30,1021.09,2035.98,3392.74,3274.84,3553.81,349.82,348.22,1.59,0000 0000 0000 0000 000000
2014-11-22 05:39:44,0.11,0.19,0.00,23.75,26.60,29.55,4.77,26.38,1021.31,2035.98,3391.31,3273.82,3552.67,350.01,348.36,1.62,0000 0000 0000 0000 000000
2014-11-22 05:44:45,0.09,0.20,0.00,23.76,26.60,29.52,4.77,26.44,1021.46,2035.98,3389.99,3272.85,3551.68,350.20,348.84,1.65,0000 0000 0000 0000 000000
2014-11-22 05:49:46,0.12,0.20,0.00,23.75,26.60,29.52,4.74,26.34,1021.50,2035.98,3388.40,3271.80,3550.55,350.22,349.00,1.68,0000 0000 0000 0000 000000
2014-11-22 05:54:47,0.12,0.20,0.00,23.76,26.59,29.51,4.71,26.25,1021.48,2035.98,3386.79,3270.76,3549.40,349.26,347.72,1.71,0000 0000 0000 0000 000000
2014-11-22 05:59:49,0.09,0.21,0.00,23.77,26.59,29.51,4.75,26.22,1021.50,2035.99,3385.42,3269.78,3548.32,349.70,348.02,1.74,0000 0000 0000 0000 000000
2014-11-22 06:04:50,0.09,0.21,0.00,23.76,26.58,29.50,4.78,26.26,1021.50,2035.99,3384.09,3268.86,3547.13,349.70,348.33,1.77,0000 0000 0000 0000 000000
2014-11-22 06:09:51,0.12,0.21,0.00,23.76,26.57,29.48,4.77,26.34,1021.50,2035.99,3382.68,3267.82,3545.86,349.87,348.43,1.79,0000 0000 0000 0000 000000
2014-11-22 06:14:53,0.11,0.22,0.00,23.77,26.57,29.48,4.76,26.33,1021.50,2035.98,3381.13,3266.80,3544.71,349.85,348.27,1.82,0000 0000 0000 0000 000000
2014-11-22 06:19:54,0.12,0.22,0.00,23.77,26.57,29.48,4.79,26.35,1021.50,2035.98,3379.43,3265.71,3543.71,350.38,348.87,1.85,0000 0000 0000 0000 000000
2014-11-22 06:24:55,0.14,0.22,0.00,23.77,26.57,29.47,4.71,26.30,1021.50,2035.99,3377.51,3264.49,3542.43,349.32,347.52,1.88,0000 0000 0000 0000 000000
2014-11-22 06:29:56,0.11,0.23,0.00,23.79,26.57,29.48,4.78,26.33,1021.50,2035.99,3375.71,3263.42,3541.21,350.12,348.35,1.91,0000 0000 0000 0000 000000
2014-11-22 06:34:57,0.11,0.23,0.00,23.80,26.55,29.46,4.72,26.27,1021.50,2035.99,3374.13,3262.43,3539.97,349.77,348.08,1.94,0000 0000 0000 0000 000000
2014-11-22 06:39:58,0.13,0.24,0.00,23.79,26.55,29.47,4.74,26.48,1021.50,2035.99,3372.38,3261.26,3538.61,349.79,348.20,1.97,0000 0000 0000 0000 000000
2014-11-22 06:45:00,0.11,0.24,0.00,23.79,26.55,29.45,4.77,26.36,1021.51,2035.99,3370.73,3260.19,3537.47,349.86,348.33,2.00,0000 0000 0000 0000 000000
2014-11-22 06:50:01,0.11,0.24,0.00,23.80,26.54,29.44,4.78,26.37,1021.51,2035.99,3369.13,3259.04,3536.17,349.97,348.34,2.03,0000 0000 0000 0000 000000
2014-11-22 06:55:03,0.11,0.25,0.00,23.82,26.53,29.41,4.81,26.36,1021.51,2035.99,3367.53,3257.98,3535.21,349.85,348.12,2.06,0000 0000 0000 0000 000000
2014-11-22 07:00:04,0.11,0.25,0.00,23.83,26.52,29.41,4.82,26.39,1021.51,2036.00,3365.97,3256.97,3534.00,350.32,348.70,2.09,0000 0000 0000 0000 000000
2014-11-22 07:05:05,0.12,0.25,0.00,23.82,26.52,29.39,4.72,26.43,1021.52,2036.00,3364.35,3255.90,3532.82,349.98,348.36,2.12,0000 0000 0000 0000 000000
2014-11-22 07:10:06,0.13,0.26,0.00,23.82,26.52,29.39,4.78,26.28,1021.53,2036.00,3362.69,3254.75,3531.63,350.28,348.86,2.15,0000 0000 0000 0000 000000
2014-11-22 07:15:07,0.11,0.26,0.00,23.82,26.50,29.39,4.81,26.46,1021.51,2036.00,3361.02,3253.69,3530.45,350.22,348.61,2.18,0000 0000 0000 0000 000000
2014-11-22 07:20:08,0.13,0.26,0.00,23.82,26.50,29.38,4.81,26.41,1021.50,2036.00,3359.25,3252.46,3529.13,350.07,348.54,2.20,0000 0000 0000 0000 000000
2014-11-22 07:25:10,0.13,0.27,0.00,23.83,26.50,29.37,4.75,26.34,1021.52,2036.00,3357.60,3251.34,3527.74,349.94,348.59,2.23,0000 0000 0000 0000 000000
2014-11-22 07:30:11,0.11,0.27,0.00,23.81,26.49,29.35,4.76,26.33,1021.51,2036.00,3355.90,3250.15,3526.50,350.25,348.84,2.26,0000 0000 0000 0000 000000
2014-11-22 07:35:12,0.12,0.28,0.00,23.81,26.47,29.35,4.68,26.32,1021.50,2036.00,3354.16,3249.02,3525.39,349.01,347.41,2.29,0000 0000 0000 0000 000000
2014-11-22 07:40:14,0.14,0.28,0.00,23.83,26.47,29.37,4.81,26.41,1021.50,2036.00,3352.39,3247.77,3524.00,350.64,348.98,2.32,0000 0000 0000 0000 000000
2014-11-22 07:45:15,0.12,0.28,0.00,23.82,26.47,29.36,4.71,26.32,1021.50,2036.01,3350.74,3246.69,3522.76,349.94,348.20,2.35,0000 0000 0000 0000 000000
2014-11-22 07:50:16,0.13,0.29,0.00,23.80,26.47,29.36,4.77,26.38,1021.50,2036.01,3349.01,3245.48,3521.44,350.01,348.32,2.38,0000 0000 0000 0000 000000
2014-11-22 07:55:17,0.12,0.29,0.00,23.80,26.46,29.35,4.72,26.20,1021.51,2036.03,3347.22,3244.33,3520.20,349.52,347.94,2.41,0000 0000 0000 0000 000000
2014-11-22 08:00:18,0.12,0.30,0.00,23.79,26.45,29.34,4.75,26.32,1021.51,2036.02,3345.44,3243.08,3518.98,348.96,347.40,2.44,0000 0000 0000 0000 000000
2014-11-22 08:05:20,0.13,0.30,0.00,23.81,26.45,29.33,4.76,26.39,1021.51,2036.02,3343.71,3241.92,3517.76,349.78,348.17,2.47,0000 0000 0000 0000 000000
2014-11-22 08:10:21,0.13,0.30,0.00,23.55,26.45,29.33,4.78,26.48,1021.51,2036.04,3342.09,3240.84,3516.62,349.88,348.69,2.50,0000 0000 0000 0000 000000
2014-11-22 08:15:22,0.12,0.31,0.00,23.34,26.45,29.33,4.73,26.54,1021.51,2036.06,3340.47,3239.70,3515.40,349.65,348.63,2.53,0000 0000 0000 0000 000000
2014-11-22 08:20:24,0.12,0.31,0.00,23.28,26.46,29.33,4.72,26.49,1021.51,2036.04,3338.77,3238.57,3514.08,349.51,348.70,2.56,0000 0000 0000 0000 000000
2014-11-22 08:25:25,0.12,0.31,0.00,23.42,26.47,29.36,4.81,26.63,1021.52,2036.04,3337.13,3237.33,3512.75,350.43,349.21,2.59,0000 0000 0000 0000 000000
2014-11-22 08:30:26,0.12,0.32,0.00,23.64,26.47,29.36,4.78,26.52,1021.73,2036.03,3335.39,3236.15,3511.49,350.49,349.13,2.62,0000 0000 0000 0000 000000
2014-11-22 08:35:27,0.13,0.32,0.00,23.68,26.47,29.34,4.79,26.50,1021.83,2036.02,3333.62,3234.85,3510.10,350.18,349.00,2.64,0000 0000 0000 0000 000000
2014-11-22 08:40:28,0.13,0.33,0.00,23.43,26.47,29.36,4.82,26.49,1021.98,2036.01,3331.84,3233.72,3508.86,350.12,349.10,2.67,0000 0000 0000 0000 000000
2014-11-22 08:45:29,0.12,0.33,0.00,23.56,26.47,29.37,4.85,26.44,1021.99,2036.02,3330.29,3232.64,3507.66,350.03,348.97,2.70,0000 0000 0000 0000 000000
2014-11-22 08:50:31,0.12,0.33,0.00,23.69,26.47,29.37,4.74,26.43,1021.99,2036.02,3328.62,3231.55,3506.44,349.96,348.56,2.73,0000 0000 0000 0000 000000
2014-11-22 08:55:32,0.12,0.34,0.00,23.65,26.47,29.36,4.74,26.44,1021.99,2036.02,3326.85,3230.24,3505.10,350.27,349.04,2.76,0000 0000 0000 0000 000000
2014-11-22 09:00:33,0.13,0.34,0.00,23.69,26.47,29.36,4.81,26.30,1021.95,2036.03,3325.23,3229.01,3503.80,350.58,349.17,2.79,0000 0000 0000 0000 000000
2014-11-22 09:05:34,0.14,0.34,0.00,23.71,26.48,29.35,4.78,26.45,1021.98,2036.02,3323.48,3227.80,3502.48,350.38,349.00,2.82,0000 0000 0000 0000 000000
2014-11-22 09:10:36,0.13,0.35,0.00,23.77,26.48,29.35,4.79,26.43,1021.99,2036.01,3321.65,3226.55,3501.08,350.40,348.90,2.85,0000 0000 0000 0000 000000
2014-11-22 09:15:37,0.13,0.35,0.00,23.74,26.48,29.36,4.72,26.43,1021.99,2036.01,3319.89,3225.37,3499.70,349.31,347.94,2.88,0000 0000 0000 0000 000000
2014-11-22 09:20:38,0.11,0.36,0.00,23.76,26.48,29.32,4.78,26.38,1022.00,2036.00,3318.18,3224.13,3498.44,349.79,348.43,2.91,0000 0000 0000 0000 000000
2014-11-22 09:25:39,0.13,0.36,0.00,23.76,26.48,29.30,4.86,26.52,1022.00,2036.01,3316.44,3222.91,3497.12,350.48,349.22,2.94,0000 0000 0000 0000 000000
2014-11-22 09:30:40,0.14,0.36,0.00,23.77,26.47,29.33,4.74,26.50,1022.00,2036.01,3314.72,3221.72,3495.78,349.22,347.87,2.97,0000 0000 0000 0000 000000
2014-11-22 09:35:42,0.13,0.37,0.00,23.76,26.47,29.34,4.76,26.39,1022.01,2036.01,3313.00,3220.60,3494.55,350.22,348.86,3.00,0000 0000 0000 0000 000000
2014-11-22 09:40:43,0.13,0.37,0.00,23.77,26.47,29.30,4.79,26.45,1022.01,2036.02,3311.21,3219.38,3493.19,350.31,348.91,3.02,0000 0000 0000 0000 000000
2014-11-22 09:45:44,0.12,0.38,0.00,23.76,26.47,29.32,4.78,26.29,1022.00,2036.02,3309.51,3218.16,3491.88,349.83,348.47,3.05,0000 0000 0000 0000 000000
2014-11-22 09:50:45,0.13,0.38,0.00,23.75,26.47,29.35,4.80,26.48,1022.01,2036.02,3307.77,3216.96,3490.60,350.27,348.93,3.08,0000 0000 0000 0000 000000
2014-11-22 09:55:46,0.14,0.38,0.00,23.76,26.46,29.36,4.75,26.42,1022.00,2036.01,3306.08,3215.74,3489.10,349.38,348.29,3.11,0000 0000 0000 0000 000000
2014-11-22 10:00:47,0.14,0.39,0.00,23.74,26.45,29.33,4.82,26.50,1022.00,2036.00,3304.16,3214.53,3487.76,350.46,349.11,3.14,0000 0000 0000 0000 000000
2014-11-22 10:05:48,0.13,0.39,0.00,23.75,26.45,29.35,4.85,26.52,1022.01,2036.01,3302.19,3213.19,3486.41,350.53,349.12,3.17,0000 0000 0000 0000 000000
2014-11-22 10:10:49,0.15,0.40,0.00,23.73,26.45,29.36,4.80,26.51,1022.00,2036.00,3300.37,3211.85,3484.90,349.52,348.23,3.20,0000 0000 0000 0000 000000
2014-11-22 10:15:51,0.15,0.40,0.00,23.73,26.45,29.36,4.79,26.62,1021.99,2036.00,3298.54,3210.57,3483.51,349.94,348.72,3.23,0000 0000 0000 0000 000000
2014-11-22 10:20:52,0.13,0.40,0.00,23.74,26.44,29.36,4.71,26.47,1022.00,2036.03,3296.69,3209.39,3482.21,349.80,348.46,3.26,0000 0000 0000 0000 000000
2014-11-22 10:25:53,0.13,0.41,0.00,23.70,26.43,29.38,4.77,26.32,1022.02,2036.03,3294.85,3208.12,3480.82,349.65,348.35,3.29,0000 0000 0000 0000 000000
2014-11-22 10:30:55,0.14,0.41,0.00,23.69,26.43,29.37,4.70,26.33,1022.09,2036.02,3292.99,3206.85,3479.55,349.62,348.25,3.32,0000 0000 0000 0000 000000
2014-11-22 10:35:56,0.14,0.42,0.00,23.69,26.42,29.35,4.78,26.58,1022.14,2036.04,3291.11,3205.63,3478.10,349.80,348.58,3.35,0000 0000 0000 0000 000000
2014-11-22 10:40:57,0.14,0.42,0.00,23.70,26.42,29.34,4.76,26.54,1022.27,2036.02,3289.10,3204.23,3476.64,349.66,348.47,3.38,0000 0000 0000 0000 000000
2014-11-22 10:45:58,0.13,0.43,0.00,23.71,26.42,29.35,4.73,26.42,1022.46,2036.02,3287.49,3202.93,3475.10,349.88,348.74,3.41,0000 0000 0000 0000 000000
2014-11-22 10:51:00,0.14,0.43,0.00,23.69,26.42,29.34,4.70,26.38,1022.45,2036.02,3285.81,3201.73,3473.61,349.50,348.37,3.43,0000 0000 0000 0000 000000
2014-11-22 10:56:01,0.13,0.43,0.00,23.69,26.42,29.33,4.83,26.43,1022.38,2036.01,3283.93,3200.53,3472.36,349.77,348.77,3.46,0000 0000 0000 0000 000000
2014-11-22 11:01:02,0.14,0.44,0.00,23.70,26.42,29.34,4.79,26.52,1022.15,2036.03,3281.80,3199.21,3471.11,350.27,349.02,3.49,0000 0000 0000 0000 000000
2014-11-22 11:06:03,0.15,0.44,0.00,23.68,26.42,29.33,4.82,26.48,1022.02,2036.02,3279.84,3197.87,3469.57,349.87,348.60,3.52,0000 0000 0000 0000 000000
2014-11-22 11:11:04,0.14,0.45,0.00,23.68,26.42,29.34,4.75,26.45,1022.01,2036.03,3277.90,3196.57,3468.19,350.34,348.86,3.55,0000 0000 0000 0000 000000
2014-11-22 11:16:05,0.16,0.45,0.00,23.68,26.42,29.36,4.72,26.43,1022.00,2036.02,3275.81,3195.14,3466.64,349.95,348.52,3.58,0000 0000 0000 0000 000000
2014-11-22 11:21:07,0.15,0.46,0.00,23.67,26.42,29.37,4.78,26.38,1022.00,2036.03,3273.77,3193.70,3465.06,350.53,349.27,3.61,0000 0000 0000 0000 000000
2014-11-22 11:26:08,0.15,0.46,0.00,23.66,26.42,29.34,4.79,26.47,1022.00,2036.01,3271.73,3192.29,3463.46,350.20,348.95,3.64,0000 0000 0000 0000 000000
2014-11-22 11:31:09,0.16,0.47,0.00,23.65,26.42,29.34,4.84,26.47,1022.03,2036.02,3269.68,3190.82,3461.88,350.16,348.87,3.67,0000 0000 0000 0000 000000
2014-11-22 11:36:10,0.15,0.47,0.00,23.68,26.42,29.36,4.80,26.43,1022.35,2036.02,3267.70,3189.44,3460.34,349.95,348.52,3.70,0000 0000 0000 0000 000000
2014-11-22 11:41:12,0.17,0.48,0.00,23.67,26.42,29.35,4.72,26.51,1022.45,2036.01,3265.45,3187.91,3458.72,349.39,348.39,3.73,0000 0000 0000 0000 000000
2014-11-22 11:46:13,0.16,0.48,0.00,23.67,26.42,29.37,4.80,26.49,1022.46,2036.02,3263.51,3186.51,3457.16,349.94,348.83,3.76,0000 0000 0000 0000 000000
2014-11-22 11:51:14,0.15,0.49,0.00,23.68,26.42,29.37,4.74,26.46,1022.39,2036.01,3261.64,3185.07,3455.68,349.76,348.77,3.79,0000 0000 0000 0000 000000
2014-11-22 11:56:15,0.16,0.49,0.00,23.68,26.42,29.38,4.79,26.42,1022.26,2036.03,3259.53,3183.66,3454.24,349.88,348.79,3.82,0000 0000 0000 0000 000000
2014-11-22 12:01:16,0.16,0.50,0.00,23.69,26.42,29.38,4.78,26.46,1022.38,2036.01,3257.39,3182.20,3452.61,349.92,348.85,3.84,0000 0000 0000 0000 000000
2014-11-22 12:06:17,0.16,0.50,0.00,23.68,26.42,29.38,4.74,26.34,1022.19,2036.00,3255.29,3180.70,3450.98,349.90,348.69,3.87,0000 0000 0000 0000 000000
2014-11-22 12:11:18,0.16,0.51,0.00,23.68,26.42,29.38,4.82,26.53,1022.04,2036.00,3253.22,3179.24,3449.37,350.19,348.81,3.90,0000 0000 0000 0000 000000
2014-11-22 12:16:20,0.18,0.51,0.00,23.66,26.42,29.37,4.77,26.44,1022.26,2036.00,3251.04,3177.66,3447.71,349.93,348.87,3.93,0000 0000 0000 0000 000000
2014-11-22 12:21:20,0.15,0.52,0.00,23.66,26.43,29.40,4.75,26.48,1022.46,2036.00,3248.92,3176.23,3446.04,349.31,348.26,3.96,0000 0000 0000 0000 000000
2014-11-22 12:26:22,0.17,0.52,0.00,23.63,26.44,29.40,4.77,26.38,1022.45,2036.00,3246.88,3174.75,3444.49,349.84,348.78,3.99,0000 0000 0000 0000 000000
2014-11-22 12:31:23,0.16,0.52,0.00,23.65,26.44,29.39,4.71,26.49,1022.46,2036.00,3244.72,3173.35,3442.86,349.44,348.33,4.02,0000 0000 0000 0000 000000
2014-11-22 12:36:24,0.17,0.53,0.00,23.65,26.45,29.40,4.80,26.49,1022.37,2036.00,3242.59,3171.75,3441.26,349.93,348.94,4.05,0000 0000 0000 0000 000000
2014-11-22 12:41:25,0.17,0.53,0.00,23.63,26.45,29.41,4.82,26.51,1022.24,2036.00,3240.42,3170.27,3439.61,350.34,349.34,4.08,0000 0000 0000 0000 000000
2014-11-22 12:46:26,0.17,0.54,0.00,23.64,26.45,29.40,4.83,26.48,1022.14,2036.00,3238.28,3168.80,3438.06,350.22,349.14,4.11,0000 0000 0000 0000 000000
2014-11-22 12:51:27,0.15,0.54,0.00,23.64,26.45,29.41,4.75,26.36,1022.06,2036.00,3236.24,3167.37,3436.40,349.24,348.04,4.14,0000 0000 0000 0000 000000
2014-11-22 12:56:28,0.19,0.55,0.00,23.64,26.45,29.40,4.81,26.50,1022.01,2036.00,3234.22,3165.80,3434.72,350.40,349.17,4.17,0000 0000 0000 0000 000000
2014-11-22 13:01:29,0.16,0.55,0.00,23.63,26.45,29.41,4.75,26.41,1022.00,2036.00,3232.02,3164.38,3433.17,349.76,348.38,4.20,0000 0000 0000 0000 000000
2014-11-22 13:06:31,0.17,0.56,0.00,23.64,26.46,29.41,4.75,26.63,1021.99,2036.00,3229.84,3162.82,3431.53,349.86,348.88,4.23,0000 0000 0000 0000 000000